Home   Weather   Frankfort   Past weeks

Flag for USA Past Weather in Frankfort, Kentucky, USA — Yesterday and Last 2 Weeks

Now
59 °F

Partly sunny.


Feels Like: 59 °F
Forecast: 45 / 61 °F
Wind: 5 mph from Northeast

Location: Capital City Airport

Current Time: Apr 23, 2017 at 7:56:00 pm

Latest Report: Apr 23, 2017 at 6:53 pm


Visibility: 10 mi

Pressure: 29.92 "Hg

Humidity: 62%

Dew Point: 46 °F

Location of FrankfortLocation

Past Weather in Frankfort — Graph

°F

Frankfort Temperature Yesterday

Maximum temperature yesterday: 54 °F (at 6:53 pm)
Minimum temperature yesterday: 48 °F (at 7:53 am)
Average temperature yesterday: 50 °F

High & Low Weather Summary for the Past Weeks

 TemperatureHumidityPressure
High83 °F (Apr 14, 4:53 pm)90% (Apr 16, 11:53 pm)30.37 "Hg (Apr 16, 11:53 pm)
Low41 °F (Apr 9, 5:53 am)19% (Apr 8, 5:53 pm)29.90 "Hg (Apr 21, 12:53 am)
Average64 °F59%30.09 "Hg
* Reported Apr 8 5:53 pm — Apr 23 5:53 pm, Frankfort, Weather by CustomWeather, © 2017

Note: Actual official high and low records may vary slightly from our data, if they occured in-between our weather recording intervals... More about our weather records

Advertising

Frankfort Weather History for the Previous 24 Hours

Scroll right to see more
 ConditionsComfort  
Time TempWeatherWind HumidityBarometerVisibility
5:53 pm
Sun, Apr 23
59 °FOvercast.6 mph60%29.91 "Hg10 mi
4:53 pm58 °FMostly cloudy.5 mph60%29.92 "Hg10 mi
3:53 pm56 °FOvercast.5 mph70%29.93 "Hg10 mi
2:53 pm56 °FLight rain. Overcast.5 mph65%29.95 "Hg8 mi
1:53 pm57 °FOvercast.9 mph58%29.95 "Hg10 mi
12:53 pm55 °FOvercast.9 mph59%29.94 "Hg10 mi
11:53 am54 °FScattered clouds.12 mph59%29.91 "Hg10 mi
10:53 am51 °FOvercast.12 mph61%29.97 "Hg10 mi
9:53 am49 °FOvercast.10 mph61%29.97 "Hg10 mi
9:17 am48 °FPartly sunny.10 mph63%29.97 "Hg10 mi
8:53 am47 °FSunny.14 mph64%29.96 "Hg10 mi
7:53 am46 °FSunny.12 mph66%29.94 "Hg10 mi
6:53 am46 °FSunny.8 mph68%29.95 "Hg10 mi
5:53 am46 °FClear.9 mph68%29.94 "Hg10 mi
4:53 am46 °FPassing clouds.8 mph71%29.96 "Hg10 mi
3:53 am47 °FPassing clouds.7 mph69%29.97 "Hg10 mi
2:53 am47 °FPassing clouds.8 mph69%29.98 "Hg10 mi
1:53 am47 °FClear.13 mph69%29.99 "Hg10 mi
12:53 am47 °FClear.7 mph71%30.01 "Hg10 mi
11:53 pm
Sat, Apr 22
48 °FClear.6 mph71%30.02 "Hg10 mi
10:53 pm49 °FPassing clouds.5 mph69%30.02 "Hg10 mi
9:53 pm50 °FClear.5 mph66%30.01 "Hg10 mi
8:53 pm51 °FClear.8 mph63%29.99 "Hg10 mi
7:53 pm53 °FSunny.12 mph61%29.98 "Hg10 mi
Weather by CustomWeather, © 2017

See weather overviewHow to use our weather pages